Weather Roundup
Issued by NWS Chicago, IL

Home | Current Version | Previous Version | Text Only | Print | Product List | Glossary Off
Versions: 1 2 3 4 5 6 7 8 9 10 11 12 13 14 15 16 17 18 19 20 21 22 23 24 25 26 27 28 29 30 31 32 33 34 35 36 37 38 39 40 41 42 43 44 45 46 47 48 49 50

000
NZUS59 KLOT 202303
HRRLOT

CHICAGO AREA WEATHER ROUNDUP
NATIONAL WEATHER SERVICE CHICAGO/ROMEOVILLE IL
600 PM CDT SUN AUG 20 2017

NOTE: "FAIR" INDICATES FEW OR NO CLOUDS BELOW 12,000 FEET WITH NO
SIGNIFICANT WEATHER AND/OR OBSTRUCTIONS TO VISIBILITY.

* THESE STATIONS ARE NOT UNDER NWS QUALITY CONTROL. THEY ALSO MAY NOT
  REPORT WEATHER SUCH AS PRECIPITATION OR FOG.

ILZ005-006-012>014-019>023-210000-
NORTHEAST ILLINOIS

CITY           SKY/WX    TMP DP  RH WIND       PRES   REMARKS
OHARE          CLOUDY    83  68  60 S6        30.00S HX  86
MIDWAY         CLOUDY    85  68  56 S7        30.00S HX  88
AURORA         CLOUDY    79  73  82 SE8       30.01S HX  82
LANSING*       CLOUDY    82  67  60 SE8       30.00F HX  84
JOLIET*        LGT RAIN  81  75  83 S3        30.02R HX  86
WAUKEGAN       CLOUDY    77  68  73 SE6       30.00S
DUPAGE AIRPORT CLOUDY    79  73  82 S3        30.00S HX  82
WHEELING       MOSUNNY   83  70  64 CALM      30.01S HX  87
MORRIS*        CLOUDY    77  74  89 E3        30.00R
NORTHERLY ISL    N/A     83  66  56 SE2         N/A  HX  85
$$

WIZ051-052-058>065-066-070>072-210000-
SOUTHEAST WISCONSIN

CITY           SKY/WX    TMP DP  RH WIND       PRES   REMARKS
MILWAUKEE      CLOUDY    79  67  66 S7        30.00S HX  81
KENOSHA*       CLOUDY    79  65  62 S6        30.01S HX  81
RACINE*        CLOUDY    77  67  71 S9        30.02S
WAUKESHA       SUNNY     77  64  65 SW6       30.01S
$$

INZ001>003-010>013-019-020-210000-
NORTHWEST INDIANA

CITY           SKY/WX    TMP DP  RH WIND       PRES   REMARKS
GARY*          CLOUDY    84  66  54 SE5       30.01F HX  86
MICHIGAN CITY* NOT AVBL
RENSSELAER*    NOT AVBL
VALPARAISO     CLOUDY    83  71  67 SE6       30.03F HX  87
$$

LMZ740>746-210000-
SOUTHERN LAKE MICHIGAN

STATION/POSITION TIME  SKY/WX   TEMP WIND        PRES    VSBY
                                AIR  DIR/SP/G
                 (UTC)          (F)  (DEG/KT/KT) (MB)    (MI)
HARRISON CRIB    2240            83  200/  8/  9   N/A
BURNHAM HARBOR   NOT AVBL
CALUMET HARBOR   2230            83  200/  3/  6 1015.4F
BURNS HARBOR     2240            83  180/  6/ 10 1016.6S
MICHIGAN CITY    2240            82  170/  7/ 10   N/A
$$

ABBREVIATIONS USED IN REMARKS
   TC - TEMPERATURE IN CELSIUS
  WCI - WIND CHILL INDEX
   HX - HEAT INDEX
  VSB - VISIBILITY
$$




USA.gov is the U.S. government's official web portal to all federal, state and local government web resources and services.